Regional Weather Roundup
Issued by NWS

Home | Current Version | Previous Version | Graphics & Text | Print | Product List | Glossary On
Versions: 1 2 3 4 5 6 7 8 9 10 11 12 13 14 15 16 17 18 19 20 21 22 23 24 25 26 27 28 29 30 31 32 33 34 35 36 37 38 39 40 41 42 43 44 45 46 47 48 49 50
000
ASUS43 KIND 090409
RWRIN

WEATHER ROUNDUP FOR INDIANA
NATIONAL WEATHER SERVICE INDIANAPOLIS IN
1100 PM EST THU DEC 08 2016

NOTE: "FAIR" INDICATES FEW OR NO CLOUDS BELOW 12,000 FEET WITH NO
SIGNIFICANT WEATHER AND/OR OBSTRUCTIONS TO VISIBILITY.

* - STATION DOES NOT REPORT WEATHER SUCH AS PRECIPITATION OR FOG.

+ - STATION NOT QUALITY CONTROLLED BY THE NATIONAL WEATHER SERVICE.
    USE DATA WITH CAUTION...ESPECIALLY DEWPOINT AND RELATIVE
    HUMIDITY OBSERVATIONS.

INZ001>003-010>013-019-020-090500-
NORTHWEST INDIANA

CITY           SKY/WX    TMP DP  RH WIND       PRES   REMARKS
GARY /AIRPORT/ CLOUDY    26  17  71 W10       30.42R WCI  16
KNOX *+        CLOUDY    23   0  36 W13       30.40S WCI  11
LA PORTE +     FLURRIES  23  17  77 SW10      30.38S WCI  12
MICHIGAN CITY+ CLOUDY    28  18  64 W10G20    30.38S WCI  19
MONTICELLO +   FLURRIES  22  12  65 W13G18    30.44R WCI  10
RENSSELAER +   FLURRIES  25  19  80 W12G21    30.44R WCI  14
VALPARAISO     FLURRIES  24  15  68 MISG      30.40R

$$

LMZ046-743>745-090500-
SOUTHERN LAKE MICHIGAN

STATION/POSITION TIME  TEMP    WIND        PRES    WAVE
                       AIR SEA DIR/SP/G            HT
                 (UTC) (F)     (DEG/KT/KT) (MB)    (FT)

$$

INZ004-005-014>016-021>024-090500-
NORTH CENTRAL INDIANA

CITY           SKY/WX    TMP DP  RH WIND       PRES   REMARKS
GOSHEN         CLOUDY    22  16  78 SW17G23   30.34S WCI   8
LOGANSPORT +   FLURRIES  21  18  86 W7        30.44S WCI  13
PERU/GRISSOM   LGT SNOW  21  16  79 W10       30.41R WCI  10
ROCHESTER +    FLURRIES  25  19  80 W10G16    30.41R WCI  15
SOUTH BEND     LGT SNOW  22  19  89 SW10      30.35S FOG     WCI  11
WARSAW +       FLURRIES  23  14  68 W15G23    30.36S WCI  10

$$

INZ006>009-017-018-025>027-090500-
NORTHEAST INDIANA

CITY           SKY/WX    TMP DP  RH WIND       PRES   REMARKS
ANGOLA *+      MOCLDY    19  18  93 W10       30.29R WCI   8
AUBURN +       FLURRIES  21  16  79 W10G16    30.34S WCI  10
FORT WAYNE     FLURRIES  21  14  74 W16       30.36S WCI   7
HUNTINGTON +   FLURRIES  20  15  78 W16       30.39R WCI   6
KENDALLVILLE + CLOUDY    21  17  83 W14G22    30.31S WCI   8

$$

INZ028-029-035-036-043>045-051>053-090500-
WEST CENTRAL INDIANA

CITY           SKY/WX    TMP DP  RH WIND       PRES   REMARKS
CRAWFORDSVL +  LGT SNOW  19  16  88 W8        30.47S WCI   9
GREENCASTLE +  LGT SNOW  21  18  86 W6        30.49R WCI  14
LAFAYETTE      FLURRIES  22  16  78 W10       30.46S WCI  11
TERRE HAUTE    FLURRIES  21  14  74 NW10      30.52S WCI  10

$$

INZ030>032-037>040-046>048-054>057-064-065-090500-
CENTRAL INDIANA

CITY           SKY/WX    TMP DP  RH WIND       PRES   REMARKS
CP ATTERBURY + FLURRIES  23  18  80 NW8       30.48S WCI  14
FISHERS *+     CLOUDY    19  18  93 W6        30.45S WCI  11
FRANKFORT +    LGT SNOW  24  19  81 W14       30.46S WCI  11
GREENWOOD *+   CLOUDY    22  16  76 W9G17     30.46S WCI  12
INDIANAPOLIS   FLURRIES  21  14  74 W15       30.46R WCI   8
-EAGLE CREEK   LGT SNOW  22  14  71 W12       30.45S WCI  10
KOKOMO +       FLURRIES  21  17  84 W12       30.43S WCI   9
MARION +       LGT SNOW  20  17  87 W12       30.42F WCI   8
MT COMFORT *+  CLOUDY    19  16  86 W9        30.45S WCI   9
SHELBYVILLE    FLURRIES  22  15  75 W10       30.45S WCI  11
ZIONSVILLE +   LGT SNOW  19  16  85 W10       30.45S WCI   8

$$

INZ033-034-041-042-049-050-058-059-090500-
EAST CENTRAL INDIANA

CITY           SKY/WX    TMP DP  RH WIND       PRES   REMARKS
MUNCIE         LGT SNOW  21  16  81 W10       30.42R WCI  10

$$

INZ060-061-067>069-081>083-085>088-090500-
SOUTHWEST INDIANA

CITY           SKY/WX    TMP DP  RH WIND       PRES   REMARKS
EVANSVILLE     CLOUDY    27  14  58 NW9       30.54S WCI  18
HUNTINGBURG *+ CLOUDY    25  16  68 NW13      30.53R WCI  13
WASHINGTON +   CLOUDY    24  16  73 NW16      30.53R WCI  11

$$

INZ062-063-066-070>080-084-089>092-090500-
SOUTH CENTRAL AND SOUTHEAST INDIANA

CITY           SKY/WX    TMP DP  RH WIND       PRES   REMARKS
BLOOMINGTON    LGT SNOW  21  13  71 W12G22    30.48R WCI   9
MADISON *+     CLOUDY    25  12  58 NW6       30.48R WCI  18
NORTH VERNON + FLURRIES  25  19  80 W9G20     30.47R WCI  15
SEYMOUR +      CLOUDY    25  12  58 NW13      30.49R WCI  13

$$





USA.gov is the U.S. government's official web portal to all federal, state and local government web resources and services.